User: anonymous   Login
Location: Unspecified
(0.0000°N, 0.0000°E)
Time: 01:26:35
(UTC+00:00)
Language:

ANNA 1B - Orbit

View from above orbital plane
View from above orbital plane
View from above satellite
View from above satellite

Ground track
Ground track

The orbit data is extracted from the following two-line orbital elements,

1 00446U 62060A   24201.48813248 -.00000089  00000-0  73911-4 0  9998
2 00446  50.1433 356.9932 0070334 104.5429 296.8802 13.35323842 10483
Epoch (UTC): 19 July 2024 11:42:54
Eccentricity: 0.0070334
inclination: 50.1433°
perigee height: 1074 km
apogee height: 1179 km
right ascension of ascending node: 356.9932°
argument of perigee: 104.5429°
revolutions per day: 13.35323842
mean anomaly at epoch: 296.8802°
orbit number at epoch: 1048

The dashed part of the orbit path shows where the satellite is in the earth's shadow,  

DLR